When you browse on this site, cookies collect data to enhance your experience and personalize the content and advertising you see.
Visit our Privacy Policy to learn more. By continuing to use the site, you agree to this use of cookies and data.
  • In Austria
  • List of Countries
  • For 7 days
  • Water Temperature
  • Weather Map
  • News
  • Weather Widgets
  • user-avatar
    Login

    Hourly Weather Pernik

    Today, 20 October, Sunday

    Time Temperature Precipitation Wind Pressure Humidity
    00:00 +13°C° 0 mm 0 mps 694 mmHg 67%
    01:00 +12°C° 0 mm 0 mps 694 mmHg 68%
    02:00 +13°C° 0 mm 1 mps 694 mmHg 71%
    03:00 +12°C° 0 mm 0 mps 694 mmHg 73%
    04:00 +12°C° 0 mm 0 mps 694 mmHg 74%
    05:00 +11°C° 0 mm 0 mps 694 mmHg 76%
    06:00 +12°C° 0 mm 0 mps 694 mmHg 73%
    07:00 +13°C° 0 mm 0 mps 694 mmHg 71%
    08:00 +13°C° 0 mm 0 mps 695 mmHg 65%
    09:00 +18°C° 0 mm 1 mps 695 mmHg 59%
    10:00 +20°C° 0 mm 1 mps 695 mmHg 52%
    11:00 +22°C° 0 mm 1 mps 696 mmHg 46%
    12:00 +23°C° 0 mm 1 mps 696 mmHg 43%
    13:00 +24°C° 0 mm 1 mps 696 mmHg 39%
    14:00 +25°C° 0 mm 1 mps 696 mmHg 36%
    15:00 +24°C° 0 mm 1 mps 695 mmHg 39%
    16:00 +23°C° 0 mm 1 mps 695 mmHg 42%
    17:00 +22°C° 0 mm 1 mps 695 mmHg 45%
    18:00 +20°C° 0 mm 1 mps 695 mmHg 49%
    19:00 +18°C° 0 mm 1 mps 695 mmHg 54%
    20:00 +16°C° 0 mm 1 mps 695 mmHg 59%
    21:00 +15°C° 0 mm 1 mps 695 mmHg 61%
    22:00 +15°C° 0 mm 1 mps 695 mmHg 64%
    23:00 +13°C° 0 mm 0 mps 695 mmHg 66%

    Tomorrow, 21 October, Monday

    Time Temperature Precipitation Wind Pressure Humidity
    00:00 +13°C° 0 mm 0 mps 695 mmHg 68%
    01:00 +12°C° 0 mm 0 mps 695 mmHg 70%
    02:00 +12°C° 0 mm 0 mps 695 mmHg 71%
    03:00 +12°C° 0 mm 0 mps 695 mmHg 73%
    04:00 +11°C° 0 mm 0 mps 695 mmHg 74%
    05:00 +11°C° 0 mm 0 mps 695 mmHg 76%
    06:00 +12°C° 0 mm 0 mps 695 mmHg 73%
    07:00 +13°C° 0 mm 0 mps 695 mmHg 71%
    08:00 +13°C° 0 mm 0 mps 696 mmHg 68%
    09:00 +16°C° 0 mm 0 mps 696 mmHg 60%
    10:00 +18°C° 0 mm 0 mps 697 mmHg 52%
    11:00 +20°C° 0 mm 0 mps 697 mmHg 44%
    12:00 +23°C° 0 mm 1 mps 697 mmHg 40%
    13:00 +24°C° 0 mm 1 mps 697 mmHg 36%
    14:00 +25°C° 0 mm 1 mps 697 mmHg 32%
    15:00 +24°C° 0 mm 1 mps 696 mmHg 35%
    16:00 +23°C° 0 mm 1 mps 696 mmHg 38%
    17:00 +22°C° 0 mm 1 mps 695 mmHg 42%
    18:00 +20°C° 0 mm 1 mps 695 mmHg 46%
    19:00 +18°C° 0 mm 1 mps 695 mmHg 51%
    20:00 +16°C° 0 mm 1 mps 695 mmHg 55%
    21:00 +15°C° 0 mm 1 mps 695 mmHg 58%
    22:00 +15°C° 0 mm 1 mps 695 mmHg 60%
    23:00 +14°C° 0 mm 1 mps 695 mmHg 63%

    Day after tomorrow, 22 October, Tuesday

    Time Temperature Precipitation Wind Pressure Humidity
    00:00 +14°C° 0 mm 1 mps 695 mmHg 64%
    01:00 +13°C° 0 mm 1 mps 695 mmHg 66%
    02:00 +12°C° 0 mm 0 mps 695 mmHg 68%
    03:00 +12°C° 0 mm 0 mps 695 mmHg 69%
    04:00 +11°C° 0 mm 0 mps 695 mmHg 71%
    05:00 +11°C° 0 mm 0 mps 695 mmHg 72%
    06:00 +12°C° 0 mm 0 mps 695 mmHg 70%
    07:00 +12°C° 0 mm 0 mps 696 mmHg 67%
    08:00 +13°C° 0 mm 0 mps 696 mmHg 65%
    09:00 +16°C° 0 mm 1 mps 696 mmHg 56%
    10:00 +20°C° 0 mm 1 mps 697 mmHg 48%
    11:00 +22°C° 0 mm 1 mps 697 mmHg 40%
    12:00 +23°C° 0 mm 2 mps 697 mmHg 36%
    13:00 +24°C° 0 mm 2 mps 697 mmHg 33%
    14:00 +25°C° 0 mm 3 mps 697 mmHg 30%
    15:00 +22°C° 0 mm 3 mps 697 mmHg 34%
    16:00 +21°C° 0 mm 3 mps 696 mmHg 38%
    17:00 +20°C° 0 mm 3 mps 696 mmHg 43%
    18:00 +18°C° 0 mm 2 mps 696 mmHg 48%
    19:00 +16°C° 0 mm 2 mps 696 mmHg 54%
    20:00 +15°C° 0 mm 1 mps 696 mmHg 59%
    21:00 +14°C° 0 mm 1 mps 696 mmHg 61%
    22:00 +14°C° 0 mm 1 mps 696 mmHg 63%
    23:00 +13°C° 0 mm 1 mps 696 mmHg 65%

    23 October, Wednesday

    Time Temperature Precipitation Wind Pressure Humidity
    00:00 +13°C° 0 mm 1 mps 696 mmHg 66%
    01:00 +12°C° 0 mm 1 mps 695 mmHg 68%
    02:00 +11°C° 0 mm 0 mps 695 mmHg 69%
    03:00 +10°C° 0 mm 0 mps 695 mmHg 71%
    04:00 +10°C° 0 mm 0 mps 695 mmHg 72%
    05:00 +10°C° 0 mm 0 mps 695 mmHg 73%
    06:00 +10°C° 0 mm 0 mps 695 mmHg 71%
    07:00 +11°C° 0 mm 0 mps 695 mmHg 68%
    08:00 +11°C° 0 mm 0 mps 695 mmHg 65%
    09:00 +14°C° 0 mm 0 mps 696 mmHg 56%
    10:00 +18°C° 0 mm 1 mps 696 mmHg 48%
    11:00 +21°C° 0 mm 1 mps 696 mmHg 39%
    12:00 +22°C° 0 mm 1 mps 696 mmHg 34%
    13:00 +23°C° 0 mm 1 mps 696 mmHg 30%
    14:00 +24°C° 0 mm 1 mps 696 mmHg 26%
    15:00 +23°C° 0 mm 1 mps 695 mmHg 28%
    16:00 +21°C° 0 mm 1 mps 695 mmHg 31%
    17:00 +20°C° 0 mm 1 mps 694 mmHg 33%
    18:00 +18°C° 0 mm 1 mps 694 mmHg 36%
    19:00 +16°C° 0 mm 1 mps 694 mmHg 39%
    20:00 +14°C° 0 mm 1 mps 694 mmHg 42%
    21:00 +13°C° 0 mm 1 mps 694 mmHg 43%
    22:00 +13°C° 0 mm 1 mps 694 mmHg 44%
    23:00 +11°C° 0 mm 0 mps 694 mmHg 45%

    24 October, Thursday

    Time Temperature Precipitation Wind Pressure Humidity
    00:00 +11°C° 0 mm 0 mps 693 mmHg 47%
    01:00 +10°C° 0 mm 0 mps 693 mmHg 48%
    02:00 +10°C° 0 mm 0 mps 693 mmHg 49%
    03:00 +10°C° 0 mm 0 mps 693 mmHg 50%
    04:00 +9°C° 0 mm 0 mps 693 mmHg 51%
    05:00 +9°C° 0 mm 0 mps 692 mmHg 53%
    06:00 +10°C° 0 mm 0 mps 693 mmHg 52%
    07:00 +10°C° 0 mm 0 mps 693 mmHg 51%
    08:00 +11°C° 0 mm 0 mps 693 mmHg 50%
    09:00 +13°C° 0 mm 0 mps 693 mmHg 44%
    10:00 +16°C° 0 mm 0 mps 693 mmHg 38%
    11:00 +20°C° 0 mm 1 mps 694 mmHg 31%
    12:00 +22°C° 0 mm 1 mps 693 mmHg 29%
    13:00 +23°C° 0 mm 1 mps 693 mmHg 26%
    14:00 +24°C° 0 mm 1 mps 693 mmHg 24%
    15:00 +22°C° 0 mm 1 mps 693 mmHg 27%
    16:00 +21°C° 0 mm 1 mps 692 mmHg 31%
    17:00 +20°C° 0 mm 1 mps 692 mmHg 34%
    18:00 +18°C° 0 mm 1 mps 691 mmHg 38%
    19:00 +15°C° 0 mm 1 mps 691 mmHg 42%
    20:00 +14°C° 0 mm 1 mps 691 mmHg 45%
    21:00 +13°C° 0 mm 1 mps 691 mmHg 47%
    22:00 +13°C° 0 mm 1 mps 691 mmHg 50%
    23:00 +12°C° 0 mm 1 mps 691 mmHg 52%

    25 October, Friday

    Time Temperature Precipitation Wind Pressure Humidity
    00:00 +10°C° 0 mm 0 mps 691 mmHg 53%
    01:00 +10°C° 0 mm 0 mps 691 mmHg 55%
    02:00 +10°C° 0 mm 0 mps 691 mmHg 56%
    03:00 +9°C° 0 mm 0 mps 691 mmHg 57%
    04:00 +9°C° 0 mm 0 mps 691 mmHg 58%
    05:00 +9°C° 0 mm 0 mps 691 mmHg 59%
    06:00 +9°C° 0 mm 0 mps 691 mmHg 58%
    07:00 +10°C° 0 mm 0 mps 691 mmHg 57%
    08:00 +11°C° 0 mm 0 mps 691 mmHg 55%
    09:00 +13°C° 0 mm 0 mps 692 mmHg 49%
    10:00 +16°C° 0 mm 0 mps 693 mmHg 42%
    11:00 +20°C° 0 mm 1 mps 693 mmHg 35%
    12:00 +21°C° 0 mm 1 mps 693 mmHg 33%
    13:00 +22°C° 0 mm 1 mps 693 mmHg 30%
    14:00 +23°C° 0 mm 1 mps 693 mmHg 28%
    15:00 +22°C° 0 mm 1 mps 692 mmHg 32%
    16:00 +20°C° 0 mm 1 mps 692 mmHg 35%
    17:00 +19°C° 0 mm 1 mps 692 mmHg 39%
    18:00 +18°C° 0 mm 1 mps 692 mmHg 43%
    19:00 +15°C° 0 mm 1 mps 692 mmHg 47%
    20:00 +13°C° 0 mm 1 mps 692 mmHg 51%
    21:00 +13°C° 0 mm 1 mps 692 mmHg 53%
    22:00 +12°C° 0 mm 1 mps 692 mmHg 55%
    23:00 +12°C° 0 mm 1 mps 692 mmHg 57%
    Show more